Location: La Chapelle
(48.3135°N, 1.3085°W)
Time: 21:32:43
(UTC+00:00)

Cosmos 2278 Rocket - Pass Details

Date: 03 March 2021
Orbit: 841 x 845 km, 71.0° (Epoch: 14 April)

Event Time Altitude Azimuth Distance (km) Brightness Sun altitude
Rises 18:38:43 0° 336° (NNW) 3,416 5.7 -8.5°
Reaches altitude 10° 18:42:11 10° 358° (N) 2,477 4.7 -9.0°
Maximum altitude 18:45:41 16° 36° (NE) 2,058 3.9 -9.6°
Enters shadow 18:48:49 11° 71° (ENE) 2,400 4.0 -10.1°
